Gastonia, NC

9:13 AM EDT on July 21, 2017 (GMT -0400)
Gastonia Municipal

Weather History for KAKH - April, 2013

Change the Weather History Date:

Monday, April 29, 2013

  Actual Average (KCLT) Record (KCLT)
Temperature  
Mean Temperature 64 °F -  
Max Temperature 73 °F 73 °F 91 °F (1888)
Min Temperature 57 °F 50 °F 33 °F (1973)
Growing Degree Days 14 (Base 50)    
Moisture  
Dew Point 58 °F    
Average Humidity 91    
Maximum Humidity 100    
Minimum Humidity 64    
Precipitation  
Precipitation 0.26 in - - ()
Sea Level Pressure  
Sea Level Pressure 30.02 in    
Wind  
Wind Speed 1 mph (NNE)    
Max Wind Speed 9 mph    
Max Gust Speed -    
Visibility 6 miles    
Events Fog , Rain    
Averages and records for this station are not official NWS values.
T = Trace of Precipitation, MM = Missing Value Source: NWS Daily Summary

Daily Weather History Graph

Daily Weather History Graph

Search for Another Location

Airport or City:

Trip Planner

Search our weather history database for the weather conditions in past years. The results will help you decide how hot, cold, wet, or windy it might be!

Date:

Astronomy

Apr. 29, 2013 Rise Set
Actual Time 6:35 AM EDT 8:08 PM EDT
Civil Twilight 6:08 AM EDT 8:36 PM EDT
Nautical Twilight 5:35 AM EDT 9:08 PM EDT
Astronomical Twilight 5:01 AM EDT 9:42 PM EDT
Moon No Moon Rise 9:58 AM EDT (4/29)
Length of Visible Light 14h 27m
Length of Day
13h 33m
Waning Gibbous, 80% of the Moon is Illuminated
Apr 29
Waning Gibbous
May 2
Last Quarter
May 9
New
May 18
First Quarter
May 25
Full

Hourly Weather History & Observations

Time (EDT) Temp. Dew Point Humidity Pressure Visibility Wind Dir Wind Speed Gust Speed Precip Events Conditions
12:54 AM 57.0 °F 57.0 °F 100% 30.05 in 4.0 mi Calm Calm - 0.12 in Rain Rain
1:36 AM 57.2 °F 55.4 °F 94% 30.05 in 5.0 mi Calm Calm - 0.06 in Rain Light Rain
1:50 AM 57.2 °F 57.2 °F 100% 30.05 in 4.0 mi Calm Calm - 0.07 in Rain Light Rain
1:54 AM 57.0 °F 57.0 °F 100% 30.04 in 4.0 mi Calm Calm - 0.07 in Rain Light Rain
2:54 AM 57.0 °F 57.0 °F 100% 30.04 in 6.0 mi Calm Calm - 0.02 in Rain Light Rain
3:01 AM 57.2 °F 57.2 °F 100% 30.04 in 6.0 mi Calm Calm - 0.01 in Rain Light Rain
3:45 AM 57.2 °F 57.2 °F 100% 30.03 in 7.0 mi Calm Calm - 0.03 in Rain Light Rain
3:54 AM 57.0 °F 55.9 °F 96% 30.02 in 8.0 mi ENE 3.5 mph - 0.03 in Rain Light Rain
4:04 AM 57.2 °F 57.2 °F 100% 30.02 in 7.0 mi Calm Calm - 0.00 in Rain Light Rain
4:15 AM 57.2 °F 55.4 °F 94% 30.01 in 6.0 mi ENE 3.5 mph - 0.00 in Rain Light Rain
4:54 AM 57.0 °F 57.0 °F 100% 30.01 in 3.0 mi Calm Calm - 0.01 in Rain Light Rain
5:31 AM 57.2 °F 57.2 °F 100% 30.02 in 6.0 mi Calm Calm - 0.00 in   Overcast
5:54 AM 57.0 °F 57.0 °F 100% 30.02 in 5.0 mi Calm Calm - 0.00 in   Overcast
6:30 AM 57.2 °F 57.2 °F 100% 30.03 in 2.0 mi Calm Calm - N/A   Overcast
6:39 AM 57.2 °F 57.2 °F 100% 30.03 in 1.2 mi Calm Calm - N/A   Overcast
6:50 AM 57.2 °F 57.2 °F 100% 30.03 in 0.5 mi NE 4.6 mph - N/A Fog Fog
6:54 AM 57.0 °F 55.9 °F 96% 30.03 in 0.5 mi NNE 3.5 mph - N/A Fog Fog
7:22 AM 57.2 °F 57.2 °F 100% 30.04 in 1.0 mi North 3.5 mph - 0.00 in   Overcast
7:39 AM 57.2 °F 57.2 °F 100% 30.05 in 0.8 mi North 3.5 mph - 0.00 in   Overcast
7:54 AM 57.0 °F 57.0 °F 100% 30.04 in 0.8 mi North 6.9 mph - 0.00 in Rain Light Rain
8:06 AM 57.2 °F 57.2 °F 100% 30.04 in 1.2 mi North 4.6 mph - 0.00 in Rain Light Rain
8:26 AM 57.2 °F 57.2 °F 100% 30.05 in 3.0 mi North 3.5 mph - 0.00 in Rain Light Rain
8:54 AM 57.9 °F 57.0 °F 97% 30.04 in 7.0 mi NE 3.5 mph - 0.01 in Rain Light Rain
9:54 AM 59.0 °F 57.9 °F 96% 30.04 in 9.0 mi Calm Calm - 0.00 in   Overcast
10:27 AM 60.8 °F 57.2 °F 88% 30.05 in 10.0 mi Calm Calm - N/A   Overcast
10:54 AM 60.1 °F 57.9 °F 93% 30.05 in 10.0 mi Calm Calm - N/A   Overcast
11:54 AM 64.0 °F 59.0 °F 84% 30.05 in 10.0 mi Calm Calm - N/A   Overcast
12:04 PM 64.4 °F 59.0 °F 83% 30.05 in 10.0 mi Calm Calm - N/A   Overcast
12:30 PM 68.0 °F 60.8 °F 78% 30.05 in 10.0 mi Calm Calm - N/A   Overcast
12:54 PM 66.0 °F 60.1 °F 81% 30.04 in 10.0 mi Calm Calm - N/A   Overcast
1:39 PM 68.0 °F 60.8 °F 78% 30.03 in 10.0 mi Calm Calm - N/A   Mostly Cloudy
1:54 PM 69.1 °F 61.0 °F 75% 30.01 in 10.0 mi Variable 3.5 mph - N/A   Mostly Cloudy
2:15 PM 68.0 °F 60.8 °F 78% 30.02 in 10.0 mi Calm Calm - N/A   Overcast
2:54 PM 69.1 °F 61.0 °F 75% 30.00 in 10.0 mi Calm Calm - N/A   Overcast
3:09 PM 69.8 °F 60.8 °F 73% 30.00 in 10.0 mi Variable 3.5 mph - N/A   Mostly Cloudy
3:54 PM 72.0 °F 59.0 °F 64% 29.97 in 10.0 mi WSW 9.2 mph - N/A   Scattered Clouds
4:54 PM 71.1 °F 59.0 °F 66% 29.95 in 10.0 mi Variable 4.6 mph - N/A   Clear
5:54 PM 72.0 °F 60.1 °F 66% 29.94 in 10.0 mi South 3.5 mph - N/A   Partly Cloudy
6:54 PM 71.1 °F 59.0 °F 66% 29.94 in 10.0 mi Calm Calm - N/A   Partly Cloudy
7:54 PM 66.9 °F 60.1 °F 79% 29.96 in 10.0 mi Calm Calm - N/A   Clear
8:54 PM 63.0 °F 60.1 °F 90% 29.99 in 10.0 mi Calm Calm - N/A   Partly Cloudy
9:54 PM 61.0 °F 59.0 °F 93% 30.00 in 10.0 mi Calm Calm - N/A   Clear
10:54 PM 59.0 °F 57.9 °F 96% 30.01 in 7.0 mi Calm Calm - N/A   Clear
11:27 PM 57.2 °F 57.2 °F 100% 30.00 in 2.0 mi Calm Calm - N/A   Clear
11:41 PM 57.2 °F 57.2 °F 100% 30.00 in 5.0 mi Calm Calm - N/A   Clear
11:54 PM 57.0 °F 55.9 °F 96% 30.00 in 4.0 mi Calm Calm - N/A   Clear